C/2003 T3 ( Tabur )

Japanese version
Home page
Total 6,336 html files since Dec. 4, 1995
Updated on May 25, 2005

---------------------------------------------------------------------

* Profile

Discovery Date October 14, 2003
Magnitude 11.7 mag
Discoverer Vello Tabur (Australian Capital Territory)

* Pictures

* Orbital Elements

Epoch 2004 Apr. 25.0 TT = JDT 2453120.5
T 2004 Apr. 28.99582 TT                                 MPC
q   1.4811476            (2000.0)            P               Q
z  +0.0000581      Peri.   43.76789     +0.80246289     -0.57117352
 +/-0.0000118      Node   347.05863     +0.03338083     +0.33188778
e   0.9999140      Incl.   50.44345     +0.59576759     +0.75074051
>From 192 observations 2003 Oct. 14-2004 Apr. 28, mean residual 0".58.

* Finding Charts

* Magnitudes Graph

        m1 = 6.5 + 5 log d +  6.5 log r  [   ,  0]  (             - 2004 Apr. 29)
        m1 = 5.3 + 5 log d + 14.0 log r  [  0,260]  (2004 Apr. 29 - 2005 Jan. 13)
        m1 = 9.2 + 5 log d +  7.0 log r  [260,   ]  (2005 Jan. 13 -             )

---------------------------------------------------------------------

The orbital elements are published on M.P.E.C. 2004-J06.
The charts are made with StellaNavigator Ver.2.0 for Windows (AstroArts / ASCII).
The magnitudes graphs are made with Comet for Windows.

---------------------------------------------------------------------

Copyright(C) 1995-2008 Seiichi Yoshida (comet@aerith.net). All rights reserved.